Wind_Speed
37 38 39 39 39 39 38 38 38 38 39 39 40 40 39 39 38 38 37 37 37 37 37 38 38 38 39 39 39 40 40 40 41 40 40 39 40 40 39 39 39 39 39
37 38 38 39 39 39 39 39 39 39 39 40 40 40 40 40 40 40 39 39 38 38 39 39 39 40 40 41 41 41 41 41 41 41 41 41 40 40 39 39 39 39 39
36 36 38 38 38 39 39 40 40 40 40 40 41 41 41 41 42 42 41 42 41 40 41 41 41 42 42 42 41 41 43 42 41 41 41 41 41 41 40 40 40 40 40
37 36 37 38 39 39 39 40 40 40 39 39 40 41 41 42 42 43 43 43 44 43 43 43 43 43 43 42 41 41 42 42 42 42 42 42 42 42 41 40 40 41 41
36 37 38 38 39 39 39 40 41 40 39 39 40 41 42 43 43 44 44 44 44 45 44 44 45 44 44 42 41 42 42 43 43 43 43 43 42 43 42 42 42 42 42
36 38 39 39 40 40 39 40 40 39 40 40 41 42 43 44 45 45 46 45 45 46 46 46 45 45 44 43 42 43 43 44 44 45 45 44 44 43 43 43 43 43 42
34 36 39 38 39 39 40 39 40 40 41 41 41 42 44 45 45 46 47 47 47 47 47 46 46 46 46 45 45 44 44 45 46 47 46 46 46 46 46 46 45 44 44
35 36 38 39 39 39 39 39 40 42 42 42 42 43 44 46 46 47 47 48 48 48 47 48 49 49 48 48 47 46 46 48 48 48 47 46 46 46 46 46 46 45 45
34 35 37 38 38 39 39 39 42 43 44 44 45 45 45 46 47 47 48 48 48 49 49 49 50 50 50 50 49 48 49 49 49 48 47 47 46 47 47 47 47 47 45
31 33 35 36 37 38 38 39 41 42 43 44 45 46 46 45 45 46 47 48 48 49 50 50 50 50 50 50 48 48 49 49 48 48 47 47 47 47 47 47 47 46 45
29 30 32 34 36 37 37 38 39 41 43 44 44 45 46 46 46 46 47 48 49 49 50 49 49 49 49 49 49 48 48 47 46 45 45 45 45 46 47 46 46 46 45
26 29 31 33 34 36 37 38 40 42 43 45 46 47 47 47 47 47 47 48 49 49 49 49 49 50 50 50 49 48 48 47 46 45 45 46 46 46 46 46 45 45 45
26 28 30 32 34 35 36 38 40 42 43 44 46 46 47 47 47 47 48 48 48 48 48 48 48 49 49 49 48 48 47 47 47 46 46 46 46 45 45 46 46 45 45
27 28 29 31 33 35 36 38 39 41 43 44 45 45 46 47 47 47 46 46 46 47 47 47 46 46 47 47 48 48 47 46 46 46 46 46 46 46 46 46 46 45 45
26 27 29 31 34 36 37 38 39 40 41 42 43 44 44 44 45 45 44 44 44 44 44 45 46 46 46 45 46 47 46 45 46 46 46 46 45 45 45 45 46 46 45
27 28 30 31 33 35 37 38 40 40 41 42 43 43 43 44 44 44 43 41 42 42 42 44 44 44 44 43 43 44 45 44 44 44 44 45 44 43 43 44 44 44 44
29 30 31 31 33 34 35 37 38 40 42 42 41 41 41 41 42 43 42 41 41 42 42 42 42 43 43 42 41 41 42 43 42 42 42 42 43 42 42 42 43 44 44
30 30 32 33 34 35 36 37 38 38 39 39 39 39 39 40 40 40 41 42 41 41 41 41 41 41 41 41 41 40 41 42 42 42 42 43 43 42 41 42 43 43 43
31 31 32 34 35 35 36 37 38 37 37 37 37 37 37 37 38 38 39 39 39 39 39 39 40 40 40 41 41 41 41 42 42 41 41 41 42 41 42 41 41 41 42
31 31 32 33 34 34 35 35 37 37 36 35 35 35 35 35 36 36 36 36 37 38 38 37 38 39 40 40 40 40 40 40 40 40 40 40 40 39 40 40 39 39 39
31 31 32 32 32 32 32 33 33 33 33 33 33 34 34 34 35 35 35 35 36 37 37 37 37 38 38 37 37 38 38 38 38 39 39 38 38 38 38 38 38 38 39
30 31 31 31 30 30 31 31 31 32 32 32 32 33 34 34 35 35 35 35 35 35 35 35 36 35 36 36 36 36 36 37 37 37 37 36 36 37 36 37 36 36 37
30 30 29 29 29 29 29 29 30 30 31 31 31 31 32 32 33 33 33 33 33 33 32 33 33 33 34 33 33 33 34 35 36 35 35 36 36 36 35 35 35 35 36
29 29 28 28 29 29 28 29 29 29 29 29 30 30 30 31 32 32 32 32 31 31 31 31 32 33 33 33 33 33 33 34 34 33 34 35 36 35 35 34 35 35 35
27 27 27 27 28 28 28 28 28 28 28 28 28 28 29 29 29 30 30 31 30 30 30 31 31 31 32 33 33 33 33 32 32 32 31 32 33 33 33 34 34 34 34
26 26 26 27 27 28 28 28 28 28 28 27 26 26 27 27 28 28 28 28 28 28 28 29 30 30 31 32 32 32 32 32 31 31 30 30 31 32 32 33 33 33 33
Wind_Direction
238 239 239 240 241 243 244 245 248 251 252 252 252 253 253 254 255 256 258 261 263 262 263 264 264 263 262 262 264 265 266 267 267 267 267 268 269 271 271 272 273 273 274
237 239 240 241 242 244 246 247 248 250 252 252 252 253 253 253 255 257 259 261 263 263 264 264 264 265 265 265 265 266 266 268 268 268 268 268 269 270 271 272 273 274 274
239 239 241 242 243 244 246 248 248 249 251 253 252 253 253 255 256 257 258 261 263 264 264 265 266 266 267 266 266 266 266 265 267 268 268 269 269 270 271 271 271 272 272
241 241 243 244 244 245 246 247 249 250 252 253 253 254 255 256 258 259 259 261 263 265 265 265 266 266 266 265 264 264 264 264 266 267 269 270 270 270 271 271 272 273 274
244 244 244 245 244 244 246 247 249 251 253 253 254 255 256 258 259 259 260 261 263 264 264 265 265 266 266 264 264 264 263 264 266 268 270 271 271 270 271 271 271 273 273
245 243 244 245 245 244 246 247 249 252 254 256 256 257 259 259 260 260 261 261 263 264 265 264 264 265 265 264 264 264 264 266 267 269 269 270 270 270 271 271 271 271 271
247 246 244 245 245 245 246 248 251 253 255 256 257 260 261 261 261 262 262 263 263 264 265 265 264 264 264 263 263 265 265 266 267 268 269 269 269 269 270 271 271 271 271
249 248 246 245 245 245 247 250 253 254 256 258 259 261 263 262 262 263 264 263 263 263 264 264 264 264 262 261 263 266 266 267 268 268 268 268 269 269 269 270 270 271 272
252 251 248 245 245 246 249 251 254 256 258 260 262 263 264 264 264 264 265 265 263 263 263 264 264 263 262 261 263 266 266 267 268 268 268 269 269 269 270 270 270 270 271
253 252 249 245 247 249 251 254 256 257 259 262 263 264 264 264 265 266 266 266 265 264 263 265 264 263 262 263 265 265 266 267 267 268 269 268 269 268 269 270 270 270 271
254 254 251 249 250 252 254 258 258 259 262 264 265 266 266 266 266 266 267 267 267 266 264 265 264 262 262 262 263 264 265 266 267 268 269 269 270 269 269 269 269 270 271
259 256 254 253 254 256 257 260 262 264 265 266 266 266 267 268 268 268 269 269 268 267 267 265 262 261 261 262 263 263 264 265 266 267 268 269 269 269 268 268 268 271 272
263 262 261 260 261 261 262 264 265 267 267 267 267 268 268 269 269 269 269 269 269 268 266 265 264 262 261 262 261 262 263 264 265 267 268 269 268 267 267 268 269 271 271
265 264 265 264 265 266 267 268 270 270 269 269 270 270 270 269 270 270 269 269 268 267 266 264 263 262 263 263 262 261 262 263 264 265 267 268 267 266 267 267 268 269 271
266 265 267 268 270 271 271 272 272 272 271 272 272 272 271 270 269 270 269 269 268 267 265 264 262 263 264 264 262 261 262 264 265 266 267 267 267 266 267 267 267 268 270
269 271 273 274 274 273 273 275 274 274 273 274 274 273 272 271 270 270 268 268 267 266 265 264 263 263 264 264 264 263 262 263 264 265 265 265 264 265 266 266 267 268 269
273 272 275 278 279 276 276 277 277 276 275 275 274 273 272 271 270 269 268 267 267 265 265 265 263 263 264 264 264 264 264 263 263 264 263 262 262 264 265 266 267 268 269
277 277 278 280 282 281 280 279 280 277 275 274 273 274 274 272 270 268 268 267 267 266 266 265 263 263 262 262 263 264 263 263 263 264 263 261 262 263 263 265 267 269 269
282 282 282 282 283 283 284 284 283 281 276 275 275 276 275 273 271 270 269 268 267 266 266 265 264 262 261 261 263 264 264 262 262 262 262 262 262 262 263 265 268 269 269
284 285 284 284 285 285 286 287 286 283 280 277 277 278 276 274 273 272 271 270 268 266 266 266 265 264 262 262 263 264 264 263 261 260 261 261 262 262 263 265 267 269 271
286 286 286 286 286 287 287 289 288 285 282 280 280 280 278 275 274 271 269 270 271 269 267 266 265 263 262 261 262 262 261 261 261 260 260 263 265 265 266 266 267 269 271
287 287 287 287 288 288 289 290 291 289 284 282 282 281 280 278 275 272 272 273 273 271 268 266 264 261 259 260 261 261 261 260 260 260 261 263 265 266 266 267 267 269 270
288 287 286 286 287 289 290 291 292 291 287 284 283 283 281 279 277 276 275 275 273 270 266 263 261 261 261 260 260 260 261 261 260 261 262 263 265 265 265 266 267 269 270
288 286 286 286 287 289 289 291 292 292 291 288 285 283 281 280 278 277 277 275 272 268 265 264 263 262 261 260 260 260 259 261 261 262 263 263 264 265 266 266 267 269 271
289 287 287 286 286 287 288 289 291 292 291 289 287 284 282 280 278 277 277 274 271 268 267 266 265 264 263 261 261 260 259 260 263 263 264 265 264 264 264 266 267 269 271
289 287 287 286 286 286 287 287 288 290 290 288 288 286 284 283 281 278 275 273 269 267 266 267 266 264 264 263 261 260 259 261 263 263 264 265 264 264 266 268 269 271 272
Height
5741 5744 5747 5750 5754 5756 5759 5762 5764 5766 5767 5769 5771 5772 5774 5775 5776 5776 5777 5777 5777 5777 5777 5777 5777 5778 5779 5779 5780 5780 5780 5780 5780 5780 5780 5780 5780 5779 5779 5778 5778 5778 5777
5732 5735 5738 5741 5744 5748 5750 5753 5755 5757 5758 5760 5761 5763 5764 5766 5767 5767 5768 5768 5768 5768 5768 5768 5768 5768 5769 5769 5769 5769 5769 5770 5769 5769 5769 5770 5771 5770 5769 5768 5768 5767 5767
5724 5727 5730 5732 5735 5738 5741 5744 5746 5748 5749 5750 5752 5753 5755 5756 5757 5758 5758 5759 5758 5758 5758 5758 5758 5758 5758 5758 5759 5758 5759 5759 5759 5759 5759 5759 5760 5760 5760 5759 5758 5757 5756
5715 5718 5721 5723 5726 5729 5732 5734 5737 5738 5740 5741 5742 5744 5745 5747 5748 5748 5748 5748 5748 5748 5747 5747 5747 5747 5747 5747 5748 5748 5748 5748 5749 5749 5749 5749 5749 5749 5749 5749 5748 5747 5746
5706 5709 5711 5714 5717 5720 5722 5725 5727 5729 5730 5731 5733 5734 5735 5736 5737 5737 5738 5738 5738 5737 5736 5736 5736 5736 5736 5737 5737 5737 5737 5738 5738 5738 5739 5738 5738 5737 5738 5738 5738 5737 5736
5697 5699 5702 5704 5707 5710 5713 5715 5717 5719 5720 5722 5722 5723 5724 5725 5725 5726 5726 5727 5727 5726 5726 5725 5725 5725 5725 5726 5727 5727 5727 5728 5728 5728 5728 5728 5727 5727 5727 5727 5727 5727 5726
5688 5689 5692 5694 5698 5700 5703 5705 5707 5709 5710 5711 5712 5712 5713 5713 5713 5714 5714 5714 5714 5715 5714 5714 5714 5714 5714 5715 5715 5715 5716 5717 5717 5716 5716 5716 5716 5716 5715 5715 5715 5715 5715
5679 5680 5682 5685 5688 5691 5693 5696 5698 5699 5700 5700 5700 5701 5701 5701 5701 5701 5701 5702 5702 5702 5702 5702 5702 5702 5703 5703 5703 5703 5704 5705 5705 5704 5704 5704 5704 5704 5704 5703 5703 5703 5704
5670 5672 5674 5676 5679 5682 5684 5686 5687 5688 5689 5689 5689 5689 5689 5689 5689 5688 5688 5688 5689 5689 5689 5688 5689 5689 5690 5690 5690 5691 5692 5692 5692 5691 5691 5691 5692 5692 5692 5691 5691 5691 5691
5664 5664 5665 5667 5670 5672 5674 5675 5676 5677 5677 5677 5677 5677 5676 5676 5675 5675 5675 5675 5675 5675 5675 5675 5675 5676 5676 5677 5677 5678 5679 5678 5679 5679 5679 5679 5679 5679 5679 5679 5679 5679 5678
5657 5658 5658 5659 5661 5663 5664 5665 5665 5666 5666 5665 5665 5664 5664 5663 5662 5661 5661 5661 5661 5661 5661 5661 5661 5662 5663 5663 5664 5665 5665 5666 5666 5666 5666 5667 5667 5667 5667 5667 5667 5667 5666
5651 5650 5650 5652 5653 5654 5655 5655 5655 5654 5654 5653 5652 5651 5651 5650 5649 5648 5648 5647 5647 5646 5647 5647 5647 5648 5649 5650 5651 5652 5653 5653 5653 5654 5654 5655 5654 5654 5655 5655 5655 5655 5655
5645 5644 5644 5644 5644 5645 5645 5645 5644 5643 5641 5640 5639 5638 5637 5637 5635 5635 5634 5633 5632 5632 5632 5633 5634 5635 5636 5637 5638 5639 5639 5640 5640 5641 5641 5642 5642 5642 5642 5643 5643 5643 5643
5638 5637 5636 5636 5636 5635 5634 5634 5632 5631 5629 5628 5627 5625 5624 5623 5622 5621 5620 5619 5619 5619 5619 5619 5621 5621 5622 5623 5624 5625 5626 5626 5627 5627 5628 5629 5629 5629 5630 5630 5631 5631 5630
5630 5629 5629 5628 5627 5626 5624 5623 5621 5619 5617 5616 5614 5612 5611 5609 5608 5607 5606 5606 5606 5606 5606 5607 5608 5609 5609 5610 5610 5611 5612 5613 5614 5614 5615 5616 5616 5617 5617 5618 5618 5618 5618
5622 5621 5620 5619 5618 5616 5614 5613 5610 5608 5605 5603 5601 5599 5597 5596 5595 5594 5594 5593 5594 5593 5594 5594 5596 5596 5597 5598 5598 5598 5599 5600 5601 5601 5602 5603 5604 5605 5606 5606 5606 5607 5606
5614 5613 5611 5610 5608 5606 5604 5602 5599 5596 5594 5591 5588 5586 5584 5583 5582 5582 5582 5581 5581 5581 5581 5582 5583 5584 5585 5586 5586 5586 5587 5587 5588 5589 5590 5591 5593 5593 5594 5595 5595 5595 5595
5606 5604 5602 5600 5598 5595 5593 5591 5588 5585 5582 5580 5577 5575 5573 5571 5570 5569 5569 5569 5569 5569 5569 5570 5571 5572 5573 5574 5574 5575 5575 5576 5577 5578 5579 5580 5581 5582 5582 5583 5583 5583 5584
5597 5595 5593 5591 5588 5585 5583 5580 5577 5574 5571 5569 5566 5564 5562 5560 5559 5558 5557 5557 5557 5557 5557 5558 5559 5560 5561 5562 5563 5563 5564 5565 5566 5567 5568 5568 5569 5570 5571 5572 5572 5573 5573
5588 5586 5584 5581 5579 5576 5573 5570 5567 5564 5561 5558 5556 5554 5551 5550 5548 5547 5547 5546 5546 5545 5545 5546 5547 5548 5549 5550 5552 5552 5553 5554 5555 5556 5557 5557 5558 5559 5560 5560 5561 5562 5562
5579 5576 5574 5572 5570 5567 5564 5561 5558 5555 5552 5549 5547 5544 5542 5540 5539 5538 5537 5536 5535 5535 5535 5535 5536 5537 5539 5540 5541 5541 5542 5543 5544 5546 5547 5547 5548 5549 5550 5550 5551 5551 5552
5570 5567 5565 5563 5560 5558 5555 5552 5549 5546 5543 5540 5538 5535 5533 5531 5529 5528 5527 5526 5525 5525 5525 5525 5525 5526 5527 5529 5530 5531 5532 5533 5534 5536 5537 5537 5538 5538 5539 5539 5540 5541 5541
5560 5558 5556 5554 5552 5549 5546 5544 5541 5537 5534 5531 5528 5526 5523 5521 5520 5518 5517 5516 5516 5515 5515 5515 5516 5517 5518 5519 5520 5521 5522 5523 5524 5526 5526 5527 5528 5528 5529 5529 5530 5530 5530
5551 5549 5547 5545 5543 5540 5538 5535 5532 5529 5526 5523 5520 5517 5515 5512 5510 5509 5508 5507 5506 5506 5506 5506 5507 5508 5509 5510 5511 5512 5513 5514 5515 5516 5516 5517 5518 5518 5519 5520 5520 5520 5520
5542 5540 5538 5536 5534 5532 5529 5526 5524 5521 5518 5514 5512 5509 5506 5504 5502 5500 5499 5498 5497 5497 5498 5498 5499 5499 5501 5501 5502 5503 5504 5505 5506 5507 5507 5507 5508 5509 5510 5510 5511 5511 5510
5534 5532 5529 5527 5525 5523 5521 5518 5515 5512 5509 5506 5504 5501 5498 5496 5494 5492 5490 5489 5488 5488 5488 5489 5490 5491 5492 5492 5493 5494 5495 5496 5497 5498 5498 5499 5499 5501 5501 5501 5501 5502 5501